Stations météo

Publicité
Montelimar, France (7577): Température de l'air & dewpoint: 15.07.2019 17:00:00 - 21.07.2019 17:00:00 (CEST)Montelimar, France (7577): Température de l'air 5cm: 15.07.2019 17:00:00 - 21.07.2019 17:00:00 (CEST)Montelimar, France (7577): Température de l'air -20cm & Température de l'air -100cm: 15.07.2019 17:00:00 - 21.07.2019 17:00:00 (CEST)Montelimar, France (7577): Vitesse du vent & gusts: 15.07.2019 17:00:00 - 21.07.2019 17:00:00 (CEST)Montelimar, France (7577): Direction du vent: 15.07.2019 17:00:00 - 21.07.2019 17:00:00 (CEST)Montelimar, France (7577): reduced air pressure: 15.07.2019 17:00:00 - 21.07.2019 17:00:00 (CEST)Montelimar, France (7577): visibility: 15.07.2019 17:00:00 - 21.07.2019 17:00:00 (CEST)Montelimar, France (7577): Ensoleillement: 15.07.2019 17:00:00 - 21.07.2019 17:00:00 (CEST)Montelimar, France (7577): Quantités de précipitations: 15.07.2019 17:00:00 - 21.07.2019 17:00:00 (CEST)
Date & Time tt [°C] td [°C] tt 5cm [°C] tt -20cm [°C] tt -100cm [°C] ff [km/h] ff [knt] fx [km/h] fx [knt] dd ppp [hPa] vv [km] sd [min] rr [mm]
21.07.2019 17:00:00 34,8 17,1 41,4 28,0 24,0 11 6 20 11 N 1017,8 20 60 0,0
21.07.2019 16:00:00 34,0 16,4 41,0 27,7 24,0 13 7 22 12 NNE 1018,7 20 60 0,0
21.07.2019 15:00:00 33,0 16,8 38,1 27,4 24,1 13 7 22 12 NNE 1019,2 20 48 0,0
21.07.2019 14:00:00 32,2 16,5 39,2 27,2 24,0 12 7 23 12 NNE 1019,7 20 60 0,0
21.07.2019 13:00:00 31,4 15,8 38,5 27,1 24,0 13 7 20 11 NNE 1020,1 20 60 0,0
21.07.2019 12:00:00 29,6 16,4 36,0 27,1 24,0 8 4 14 7 N 1020,7 20 60 0,0
21.07.2019 11:00:00 27,4 15,7 33,1 27,2 24,1 5 3 10 6 N 1021,0 20 60 0,0
21.07.2019 10:00:00 24,9 15,8 25,9 27,3 24,0 3 2 9 5 NNE 1021,0 20 45 0,0
21.07.2019 09:00:00 21,4 15,2 22,2 27,4 24,0 0 0 5 3 N 1021,2 20 10 0,0
21.07.2019 08:00:00 19,4 15,7 18,1 27,6 24,0 3 2 5 3 NNW 1021,0 20 0 0,0
21.07.2019 07:00:00 17,8 14,5 16,4 27,8 24,0 0 0 4 2 N 1020,9 14 0 0,0
21.07.2019 06:00:00 17,7 14,0 16,3 28,0 24,0 2 1 6 3 N 1020,8 19 0 0,0
21.07.2019 05:00:00 18,0 13,7 16,7 28,2 24,0 0 0 5 3 N 1020,3 20 0 0,0
21.07.2019 04:00:00 18,5 13,8 17,1 28,4 24,0 0 0 4 2 N 1020,4 20 0 0,0
21.07.2019 03:00:00 19,1 13,5 17,2 28,5 23,9 2 1 5 3 E 1020,4 20 0 0,0
21.07.2019 02:00:00 19,8 12,5 17,3 28,7 24,0 2 1 4 2 NNW 1020,4 20 0 0,0
21.07.2019 01:00:00 21,5 12,3 18,3 28,8 23,9 0 0 5 3 N 1020,2 20 0 0,0
21.07.2019 00:00:00 24,2 12,5 22,9 28,8 23,9 5 3 18 10 S 1019,7 20 0 0,0
20.07.2019 23:00:00 25,5 12,3 24,8 28,9 24,0 10 6 23 13 S 1018,9 20 0 0,0
20.07.2019 22:00:00 27,2 11,2 26,6 28,8 23,9 14 8 29 15 S 1018,2 20 0 0,0
20.07.2019 21:00:00 28,8 10,5 28,4 28,7 23,9 15 8 29 16 S 1017,1 20 48 0,0
20.07.2019 20:00:00 30,5 9,9 32,0 28,5 23,9 13 7 33 18 S 1016,4 20 60 0,0
20.07.2019 19:00:00 31,3 13,6 34,2 28,2 23,9 18 10 30 16 S 1016,2 20 56 0,0
20.07.2019 18:00:00 31,8 14,0 33,1 28,0 23,9 15 8 32 18 S 1016,2 20 36 0,0
20.07.2019 17:00:00 30,3 15,6 32,8 27,8 23,9 17 9 29 16 S 1016,5 20 20 0,0
20.07.2019 16:00:00 30,4 16,0 34,0 27,6 23,9 19 10 35 19 S 1016,9 20 51 0,0
20.07.2019 15:00:00 30,0 16,4 32,7 27,5 23,9 18 10 29 16 S 1017,1 9 45 0,0
20.07.2019 14:00:00 28,2 16,5 28,8 27,5 23,9 12 6 22 12 SSW 1017,6 20 7 0,0
20.07.2019 13:00:00 27,9 16,2 29,4 27,5 23,9 9 5 24 13 SW 1018,1 20 28 0,0
20.07.2019 12:00:00 25,8 15,2 27,2 27,5 23,8 9 5 18 10 SSW 1018,2 20 0 0,0
20.07.2019 11:00:00 25,5 14,9 28,2 27,6 23,9 11 6 25 14 SSW 1018,3 20 1 0,0
20.07.2019 10:00:00 25,1 15,4 27,6 27,8 23,8 12 7 25 14 S 1018,3 20 55 0,0
20.07.2019 09:00:00 22,8 14,9 25,0 28,0 23,8 9 5 16 9 S 1017,3 20 54 0,0
20.07.2019 08:00:00 20,1 14,0 18,0 28,2 23,8 4 2 9 5 SSE 1016,9 20 60 0,0
20.07.2019 07:00:00 16,7 13,6 14,3 28,5 23,8 0 0 4 2 N 1017,0 17 22 0,0
20.07.2019 06:00:00 17,2 13,1 14,6 28,7 23,8 0 0 6 4 N 1016,8 20 0 0,0
20.07.2019 05:00:00 18,3 13,2 15,2 28,9 23,8 3 1 5 3 S 1016,4 20 0 0,0
20.07.2019 04:00:00 19,3 13,5 15,8 29,1 23,8 4 2 8 4 S 1016,2 20 0 0,0
20.07.2019 03:00:00 19,5 12,5 16,4 29,3 23,8 2 1 6 3 S 1016,0 20 0 0,0
20.07.2019 02:00:00 21,1 12,5 18,9 29,4 23,8 4 2 8 4 SSW 1015,9 20 0 0,0
20.07.2019 01:00:00 22,3 12,0 18,8 29,5 23,8 2 1 10 5 SSW 1015,9 20 0 0,0
20.07.2019 00:00:00 23,9 11,6 22,6 29,6 23,7 5 3 22 12 SSW 1015,7 20 0 0,0
19.07.2019 23:00:00 25,9 11,3 25,2 29,5 23,8 13 7 24 13 S 1015,1 20 0 0,0
19.07.2019 22:00:00 27,5 12,7 26,6 29,4 23,8 11 6 24 13 S 1014,2 20 0 0,0
19.07.2019 21:00:00 29,5 12,9 28,9 29,2 23,7 13 7 29 16 S 1013,3 19 40 0,0
19.07.2019 20:00:00 31,9 12,7 33,6 28,9 23,8 16 9 29 15 S 1012,4 20 60 0,0
19.07.2019 19:00:00 33,5 8,9 37,9 28,4 23,7 9 5 16 9 S 1012,5 20 60 0,0
19.07.2019 18:00:00 33,5 9,5 39,6 28,1 23,8 6 4 15 8 S 1012,9 20 60 0,0
19.07.2019 17:00:00 33,5 9,5 39,6 27,7 23,8 2 1 14 8 N 1013,3 20 60 0,0
19.07.2019 16:00:00 32,6 9,4 39,1 27,4 23,7 2 1 13 7 N 1013,8 20 60 0,0
19.07.2019 15:00:00 32,1 10,2 38,4 27,1 23,7 5 3 18 10 N 1014,4 20 60 0,0
19.07.2019 14:00:00 30,3 12,2 36,2 26,9 23,7 13 7 24 13 NNE 1015,0 20 60 0,0
19.07.2019 13:00:00 28,8 13,1 33,9 26,9 23,7 16 9 31 17 NNE 1015,5 20 60 0,0
19.07.2019 12:00:00 27,3 13,6 31,8 26,9 23,6 20 11 37 20 NNE 1016,1 20 60 0,0
19.07.2019 11:00:00 26,0 13,1 30,7 27,0 23,6 23 12 38 21 NNE 1016,3 20 60 0,0
19.07.2019 10:00:00 24,7 13,3 27,8 27,1 23,7 21 11 39 21 NNE 1016,4 20 60 0,0
19.07.2019 09:00:00 23,3 12,0 26,4 27,3 23,6 22 12 41 22 NNE 1016,5 20 60 0,0
19.07.2019 08:00:00 22,3 12,3 21,5 27,5 23,6 14 8 22 12 NNE 1016,2 20 60 0,0
19.07.2019 07:00:00 21,0 10,5 19,8 27,7 23,6 9 5 26 14 N 1016,0 20 23 0,0
19.07.2019 06:00:00 20,7 11,3 19,6 27,9 23,6 16 9 24 13 NNE 1015,9 20 0 0,0
19.07.2019 05:00:00 21,5 10,9 20,7 28,1 23,6 14 7 34 18 NNE 1015,6 20 0 0,0
19.07.2019 04:00:00 21,8 10,9 20,9 28,2 23,6 14 8 29 16 N 1015,3 20 0 0,0
19.07.2019 03:00:00 23,1 9,8 22,1 28,4 23,6 18 10 29 16 N 1015,2 20 0 0,0
19.07.2019 02:00:00 23,6 9,9 22,5 28,5 23,6 13 7 24 13 N 1015,0 20 0 0,0
19.07.2019 01:00:00 23,8 9,8 22,5 28,7 23,6 10 5 23 13 NNE 1014,7 20 0 0,0
19.07.2019 00:00:00 25,1 10,2 23,8 28,7 23,6 16 9 34 18 NNE 1014,3 20 0 0,0
18.07.2019 23:00:00 25,3 10,7 23,7 28,8 23,6 14 8 22 12 NNE 1013,7 20 0 0,0
18.07.2019 22:00:00 25,9 12,0 24,7 28,7 23,6 10 5 17 9 NNE 1013,0 20 0 0,0
18.07.2019 21:00:00 27,2 11,6 26,4 28,5 23,5 8 4 20 11 N 1012,0 20 23 0,0
18.07.2019 20:00:00 28,6 11,2 28,5 28,3 23,6 10 5 23 13 N 1011,4 20 0 0,0
18.07.2019 19:00:00 30,6 10,5 32,8 28,0 23,6 15 8 32 17 NNE 1010,9 20 52 0,0
18.07.2019 18:00:00 31,5 10,2 36,0 27,7 23,5 14 8 32 17 NNE 1010,8 20 58 0,0
18.07.2019 17:00:00 32,0 9,5 37,7 27,4 23,6 14 7 28 15 NNE 1011,1 20 60 0,0
18.07.2019 16:00:00 32,1 10,2 37,9 27,1 23,6 14 8 29 16 NNE 1011,4 20 60 0,0
18.07.2019 15:00:00 31,4 9,6 36,4 26,9 23,5 13 7 27 15 NNE 1011,5 20 49 0,0
18.07.2019 14:00:00 31,0 10,4 36,5 26,7 23,6 15 8 26 14 NNE 1012,0 20 60 0,0
18.07.2019 13:00:00 30,1 11,6 35,2 26,7 23,5 16 8 26 14 NNE 1012,3 20 60 0,0
18.07.2019 12:00:00 28,9 11,9 34,3 26,6 23,5 15 8 24 13 NNE 1012,7 20 60 0,0
18.07.2019 11:00:00 27,1 11,2 30,9 26,7 23,5 16 8 30 16 NNE 1012,8 20 60 0,0
18.07.2019 10:00:00 24,6 11,5 27,6 26,9 23,5 13 7 22 12 NNE 1013,3 18 60 0,0
18.07.2019 09:00:00 22,5 12,7 21,0 27,0 23,5 6 4 15 8 NNE 1013,3 18 42 0,0
18.07.2019 08:00:00 20,4 12,6 21,1 27,2 23,5 4 2 14 7 NNW 1013,0 20 21 0,0
18.07.2019 07:00:00 20,6 12,0 19,6 27,4 23,5 10 5 20 11 N 1012,5 20 24 0,0
18.07.2019 06:00:00 20,6 12,6 19,7 27,6 23,5 10 6 21 11 N 1012,2 20 0 0,0
18.07.2019 05:00:00 21,3 11,9 20,3 27,7 23,4 10 5 23 12 N 1011,9 20 0 0,0
18.07.2019 04:00:00 22,0 11,4 20,6 27,9 23,5 14 7 24 13 N 1012,0 20 0 0,0
18.07.2019 03:00:00 22,6 11,6 21,4 28,1 23,5 10 5 18 10 N 1012,0 20 0 0,0
18.07.2019 02:00:00 23,1 11,2 22,1 28,1 23,4 10 5 20 11 N 1011,8 20 0 0,0
18.07.2019 01:00:00 23,1 12,7 22,4 28,3 23,5 10 5 17 9 N 1011,8 20 0 0,0
18.07.2019 00:00:00 24,6 11,2 23,5 28,3 23,5 10 5 17 9 N 1011,5 20 0 0,0
17.07.2019 23:00:00 26,1 9,9 25,3 28,2 23,4 11 6 16 9 N 1011,3 20 0 0,0
17.07.2019 22:00:00 26,9 11,0 25,1 28,1 23,5 8 5 12 7 N 1010,7 20 0 0,0
17.07.2019 21:00:00 28,3 11,4 27,2 27,9 23,4 4 2 14 7 N 1010,2 17 5 0,0
17.07.2019 20:00:00 29,9 9,4 29,8 27,7 23,5 10 6 24 13 NNE 1009,9 20 37 0,0
17.07.2019 19:00:00 31,6 9,2 35,9 27,4 23,5 13 7 27 15 NNE 1009,8 20 60 0,0
17.07.2019 18:00:00 32,1 10,2 36,8 26,9 23,4 14 8 27 15 N 1010,1 20 60 0,0
17.07.2019 17:00:00 32,3 9,2 38,7 26,5 23,4 17 9 29 16 NNE 1010,6 20 60 0,0
17.07.2019 16:00:00 32,1 9,0 37,4 26,2 23,4 19 10 29 15 NNE 1011,0 20 60 0,0
17.07.2019 15:00:00 31,8 9,9 38,8 26,0 23,5 18 10 28 15 NNE 1011,5 20 60 0,0
17.07.2019 14:00:00 31,0 9,8 36,2 25,8 23,4 15 8 32 17 NNE 1012,0 20 60 0,0
17.07.2019 13:00:00 29,3 10,9 34,7 25,7 23,4 20 11 31 17 NNE 1012,9 20 60 0,0
17.07.2019 12:00:00 27,4 11,4 32,3 25,7 23,4 20 11 32 17 NNE 1013,2 20 60 0,0
17.07.2019 11:00:00 25,5 11,6 29,4 25,8 23,4 15 8 31 17 NNE 1013,7 20 60 0,0
17.07.2019 10:00:00 23,8 10,8 26,8 26,0 23,5 19 11 29 16 NNE 1014,2 20 60 0,0
17.07.2019 09:00:00 21,9 10,4 23,0 26,2 23,4 14 8 30 16 NNE 1014,3 20 60 0,0
17.07.2019 08:00:00 18,2 12,9 17,1 26,4 23,4 6 3 13 7 N 1014,4 20 47 0,0
17.07.2019 07:00:00 15,0 12,5 12,0 26,6 23,4 0 0 3 2 N 1014,5 20 25 0,0
17.07.2019 06:00:00 14,3 11,4 12,2 26,8 23,4 0 0 4 2 N 1014,5 20 0 0,0
17.07.2019 05:00:00 14,8 11,6 12,4 27,1 23,4 0 0 3 2 N 1014,2 20 0 0,0
17.07.2019 04:00:00 15,7 11,9 13,2 27,2 23,4 0 0 5 3 N 1014,2 20 0 0,0
17.07.2019 03:00:00 16,8 12,1 14,2 27,4 23,4 0 0 6 3 N 1014,4 20 0 0,0
17.07.2019 02:00:00 17,9 11,9 15,0 27,5 23,4 0 0 4 2 N 1014,5 20 0 0,0
17.07.2019 01:00:00 19,5 12,0 16,5 27,6 23,4 0 0 7 4 N 1014,5 20 0 0,0
17.07.2019 00:00:00 22,4 10,8 19,8 27,7 23,4 7 4 13 7 N 1014,1 20 0 0,0
16.07.2019 23:00:00 23,2 10,3 20,4 27,7 23,4 9 5 13 7 N 1013,8 20 0 0,0
16.07.2019 22:00:00 24,1 11,8 20,8 27,5 23,4 6 3 12 6 N 1013,5 20 0 0,0
16.07.2019 21:00:00 27,0 11,1 25,5 27,4 23,4 8 4 18 10 N 1013,2 20 34 0,0
16.07.2019 20:00:00 29,0 11,5 30,5 27,2 23,4 12 6 26 14 NNE 1013,1 19 50 0,0
16.07.2019 19:00:00 29,6 11,6 32,6 26,8 23,4 17 9 30 16 NNE 1012,9 20 60 0,0
16.07.2019 18:00:00 29,8 11,8 31,7 26,6 23,5 16 9 35 19 NNE 1013,0 20 38 0,0
16.07.2019 17:00:00 30,5 12,4 31,8 26,2 23,4 19 10 30 16 NNE 1013,2 20 47 0,0
16.07.2019 16:00:00 29,8 12,2 34,0 25,9 23,5 18 10 36 19 NNE 1013,7 20 53 0,0
16.07.2019 15:00:00 29,6 12,9 35,4 25,6 23,4 21 11 35 19 NNE 1013,9 20 60 0,0
16.07.2019 14:00:00 28,4 12,3 33,7 25,5 23,4 21 12 40 22 N 1014,4 20 60 0,0
16.07.2019 13:00:00 27,5 12,7 32,3 25,3 23,4 24 13 40 21 NNE 1014,7 20 60 0,0
16.07.2019 12:00:00 26,1 12,9 30,3 25,4 23,4 23 13 42 23 NNE 1015,2 20 60 0,0
16.07.2019 11:00:00 25,0 12,9 28,9 25,3 23,4 23 12 39 21 NNE 1015,5 20 60 0,0
16.07.2019 10:00:00 23,7 12,7 26,6 25,5 23,4 19 10 34 18 NNE 1015,5 20 60 0,0
16.07.2019 09:00:00 21,7 12,0 23,3 25,7 23,4 17 9 32 18 NNE 1015,7 20 60 0,0
16.07.2019 08:00:00 20,2 11,4 19,7 25,9 23,5 19 10 35 19 NNE 1015,5 20 60 0,0
16.07.2019 07:00:00 19,4 10,7 18,4 26,0 23,4 19 10 36 20 NNE 1014,9 20 25 0,0
16.07.2019 06:00:00 19,0 10,3 18,0 26,2 23,4 19 10 31 17 NNE 1014,6 20 0 0,0
16.07.2019 05:00:00 19,1 10,4 17,4 26,4 23,4 10 6 16 8 NE 1014,6 20 0 0,0
16.07.2019 04:00:00 19,6 10,3 18,4 26,5 23,4 9 5 22 12 NE 1014,7 20 0 0,0
16.07.2019 03:00:00 20,2 10,6 19,5 26,7 23,4 16 8 27 15 NNE 1014,8 20 0 0,0
16.07.2019 02:00:00 21,2 10,9 20,4 26,8 23,4 14 8 26 14 NNE 1014,6 20 0 0,0
16.07.2019 01:00:00 22,2 11,3 21,3 26,8 23,4 13 7 32 18 NNE 1014,5 20 0 0,0
16.07.2019 00:00:00 24,0 10,3 23,0 26,9 23,4 20 11 41 22 N 1013,8 20 0 0,0
15.07.2019 23:00:00 24,5 10,0 23,6 26,9 23,5 19 11 40 22 N 1013,4 20 0 0,0
15.07.2019 22:00:00 24,9 10,4 24,1 26,9 23,4 20 11 41 22 N 1012,8 20 0 0,0
15.07.2019 21:00:00 25,6 10,2 25,2 26,8 23,4 25 14 50 27 N 1012,3 20 44 0,0
15.07.2019 20:00:00 26,2 11,1 28,2 26,6 23,5 20 11 56 30 N 1011,4 20 60 0,0
15.07.2019 19:00:00 26,5 11,8 28,6 26,4 23,4 28 15 61 33 N 1011,0 20 56 0,0
15.07.2019 18:00:00 26,8 12,1 30,7 26,2 23,5 29 15 58 31 N 1010,7 20 60 0,0
15.07.2019 17:00:00 26,6 12,3 31,2 25,9 23,4 31 17 61 33 NNE 1010,7 18 60 0,0

tt = Température de l'air
td = dewpoint
tt 5cm = Température de l'air 5cm
tt -20cm = Température de l'air -20cm
tt -100cm = Température de l'air -100cm
ff = Vitesse du vent
fx = gusts
dd = Direction du vent
ppp = reduced air pressure
vv = visibility
sd = Ensoleillement
rr = Quantités de précipitations

stations d'obs. à proximité